SCOUT B DEB, 2800

Orbit data source: Space-Track

SCOUT B DEB, 2800 is space debris in LEO originally from a launch on Thu, 04 Aug 1966 UTC launched from the Air Force Western Test Range (AFWTR). Debris objects in space refer to the collection of defunct objects orbiting the Earth. Examples of debris include non-operational satellites, rocket bodies, and fragments generated from explosions, collisions, or faulty payload assembly.

Loading next visibility...
Identifier
2800, 1966-070D
Orbit
LEO
Country
Flag of USUS
Related business
Manufacturer
Unknown
Mission
Spacecraft
Bus & Motor
Unknown
Mass
Unknown
Launch date (UTC)
1966-08-04 (59 years ago)
Launch vehicle
Unknown
Launch site
Air Force Western Test Range (AFWTR)
Object type
Payload
Rocket body
Debris
Shape & HBR
Unknown shape, 0.1 m
Radar Cross Section
Small (<0.1 m²)

Expand to show TLE details & history
Last TLE update: 1 day ago

TLE from 1 day ago
0 SCOUT B DEB
1 02800U 66070D   25298.05481313  .00017516  00000-0  22608-2 0  9990
2 02800  81.4063  58.5997 1406148 206.6589 145.5034 12.39037627555598
Epoch: 2025-10-25T01:18Z
TLE epoch observation values (Epoch: 2025-10-25T01:18:55.854Z)
Latitude
-0.00003°
Longitude
5.17611°
Altitude
2,470.114 km
Speed
6.293 km/s
True Right ascension
03h 54m 23s
True Declination
0° 00' 00"
Sunlit
Object was in full shadow at epoch
Visualization orbit readout
Latitude
Unknown
Longitude
Unknown
Altitude
Unknown
Speed
Unknown
Apparent Right ascension
Unknown
Apparent Declination
Unknown
Sunlit
N/A
Visualization observer readout
Local Sidereal Time
23:43:19
Azimuth
Unknown
Elevation
Unknown
Doppler factor
Unknown
Orbital elements
Apogee altitude
2,616.916 km
Perigee altitude
399.099 km
Semi-major axis
7,886.144 km
Eccentricity
0.14061
Inclination
81.4063°
RAAN
58.5997°
Arg. of periapsis
206.6589°
True anomaly
153.44497°
Mean anomaly
145.5034°
Eccentric anomaly
149.58246°
Mean motion
3.09917 °/min
Orbital period
116.16 mins
BSTAR
0.0022608
Loading maneuver chart data...
Computing Atmospheric mass density...
Loading historical data...
Loading historical data...
Loading historical data...
Loading historical data...
Loading historical data...
Loading historical data...
Loading historical data...
Other satellites on launch #70 in the year 1966 (1966-08-04 UTC)

Documentation

Showing up to 5 results
|